Location: Newark
(41.0400°S, 62.7845°W)
Time: 00:19:09
(UTC+00:00)

Vanguard 2 - Pass Details

Date: 04 December 2021
Orbit: 554 x 2935 km, 32.9° (Epoch: 27 January)

Event Time Altitude Azimuth Distance (km) Brightness Sun altitude
Rises 02:32:00 0° 330° (NNW) 6,473 11.9 -23.4°
Enters shadow 02:36:17 - 337° (NNW) 5,726 11.5 -23.7°
Exits shadow 02:49:58 32° 26° (NNE) 4,158 10.6 -24.6°
Maximum altitude 02:51:20 33° 33° (NNE) 4,122 10.6 -24.7°
Drops below altitude 10° 03:04:35 10° 88° (E) 5,193 11.6 -25.4°
Sets 03:08:44 0° 97° (E) 5,926 12.0 -25.5°
